Regional Weather Roundup
Issued by NWS Pendleton, OR

Home | Current Version | Previous Version | Text Only | Print | Product List | Glossary On
Versions: 1 2 3 4 5 6 7 8 9 10 11 12 13 14 15 16 17 18 19 20 21 22 23 24 25 26 27 28 29 30 31 32 33 34 35 36 37 38 39 40 41 42 43 44 45 46 47 48 49 50
000
ASUS46 KPDT 232110
RWRPDT
PENDLETON REGIONAL WEATHER ROUNDUP
NATIONAL WEATHER SERVICE PENDLETON OREGON
200 PM PDT TUE AUG 23 2016

NOTE: FAIR INDICATES FEW OR NO CLOUDS BELOW 12,000 FEET WITH NO
SIGNIFICANT WEATHER AND/OR OBSTRUCTIONS TO VISIBILITY.

# INDICATES UNOFFICIAL STATION AND DATA

WAZ520-232210-
EAST SLOPES OF WASHINGTON CASCADES

CITY            SKY/WX      TMP DP  RH  WIND    PRES   REMARKS
#CLE ELUM HS    N/A         77  38  24  NW3     30.08F
#CLE ELUM 2NW   N/A         77  38  24  CALM    N/A
#GLENWOOD       N/A         77  46  33  W1      30.11F
#MANASTASH CYN  N/A         74  43  33  W5      30.13R
#NELSON 3SW     N/A         74  42  32  CALM    30.30F
#NILE           N/A         78  39  25  N2      29.36F
#RONALD 2NW     N/A         74  N/A N/A N2      30.18S
#TEANAWAY 4NE   N/A         80  44  28  CALM    N/A
#TROUT LAKE 1NE N/A         75  44  33  CALM    30.10F
#TROUT LAKE 1E  N/A         78  44  30  CALM    30.11S
$$

WAZ521-232210-
SIMCOE HIGHLANDS

CITY            SKY/WX      TMP DP  RH  WIND    PRES   REMARKS
#CENTERVILLE 1SWN/A         76  42  30  W1      30.06F
#GOLDENDALE 1NE N/A         78  27  15  SE3     N/A
#GOLDENDALE 4W  N/A         79  50  36  S7      30.16F
#GOODNOE HILLS  N/A         82  39  22  SE7     30.03F
#LYLE 6NE       N/A         78  44  30  SW7     30.06F
$$

WAZ026-232210-
KITTITAS VALLEY

CITY            SKY/WX      TMP DP  RH  WIND    PRES   REMARKS
ELLENSBURG AP   SUNNY       81  38  21  VRB3    30.14S
#ELLENSBURG CWU N/A         78  40  26  S3      30.04F
#ELLENSBURG 3NE N/A         74  45  35  CALM    30.13F
#ELLENSBURG     N/A         84  41  22  SE2     N/A
#ELLENSBURG 1E  N/A         82  N/A N/A CALM    N/A
#KITTITAS 4N    N/A         80  45  29  E1      30.08F
#KITTITAS 3S    N/A         75  42  31  CALM    30.08S
#THORP 6N       N/A         74  41  30  S3      30.12F
$$

WAZ027-232210-
YAKIMA VALLEY

CITY            SKY/WX      TMP DP  RH  WIND    PRES   REMARKS
YAKIMA AIRPORT  MOSUNNY     81  39  22  VRB3    30.13F
YAKIMA-VAGABOND N/A         79  36  21  W8      30.11F
#DONALD 2NE     N/A         86   7   5  SE1     28.97F
#GRANDVIEW      N/A         77  41  28  SE1     30.11F
#MABTON         N/A         78  46  32  CALM    30.11F
#NACHES 2SW     N/A         78  49  36  CALM    30.16S
#TERRACE HTS    N/A         80  44  28  S1      30.05F
#TOPPENISH      N/A         78  42  28  S1      30.01F
#WEST VALLEY    N/A         77  41  28  S1      30.08F
#WHITE SWAN 5E  N/A         79  46  31  E6      30.10S
#WILEY CITY 3W  N/A         79  32  18  CALM    30.10F
$$

WAZ028-232210-
LOWER COLUMBIA BASIN...WASHINGTON

CITY            SKY/WX      TMP DP  RH  WIND    PRES   REMARKS
HANFORD         MOSUNNY     83  37  19  NW7     30.12S
PASCO           SUNNY       81  45  28  VRB7    30.12F
PROSSER AWOS    N/A         81  45  28  CALM    30.15F
RICHLAND AWOS   SUNNY       82  44  26  SE7     30.11F
#BENTON CITY    N/A         78  46  32  E2      30.00F
#CONNELL 5N     N/A         80  45  29  W2      30.09S
#CONNELL 5NW    N/A         76  45  33  CALM    30.05F
#ELTOPIA 6NW    N/A         83  49  31  CALM    29.09F
#KAHLOTUS       N/A         76  44  32  E5      30.08F
#KENNEWICK 3S   N/A         80  51  36  CALM    30.11S
#PATERSON       N/A         78  47  34  W5      30.08F
#SAGEMOOR 2W    N/A         78  48  35  E1      29.95F
#TOUCHET 2S     N/A         82  47  29  NW2     30.08F
#WEST PASCO     N/A         82  53  37  CALM    30.10F
$$

WAZ029-232210-
FOOTHILLS OF THE BLUES...WASHINGTON

CITY            SKY/WX      TMP DP  RH  WIND    PRES   REMARKS
WALLA WALLA AP  SUNNY       77  39  25  VRB3    30.13F
#CLYDE 6NW      N/A         77  44  31  W8G31   30.08F
#DAYTON SCHOOL  N/A         76  37  24  SE5     30.13F
#LOWDEN 2SE     N/A         80  48  33  W3      30.07F
#PLEASANT VIEW 1N/A         77  42  29  W3      30.11F
#PRESCOTT       N/A         79  46  31  CALM    30.10F
#WHITMAN COLLEGEN/A         76  46  34  SW3     30.14F
#WAITSBURG 8N   N/A         86  25  11  N2      29.97F
#WALLA WALLA U  N/A         78  45  31  CALM    30.09F
#WHITMAN MISSIONN/A         80  47  31  CALM    30.10F
$$

WAZ030-232210-
BLUE MOUNTAINS...WASHINGTON

CITY            SKY/WX      TMP DP  RH  WIND    PRES   REMARKS
#DIXIE 5SE      N/A         69  38  32  W7      30.12F
$$

ORZ009-041-WAZ024-232210-
COLUMBIA RIVER GORGE

CITY            SKY/WX      TMP DP  RH  WIND    PRES   REMARKS
HOOD RIVER AP   SUNNY       81  43  26  NE5     30.11F
THE DALLES AP   SUNNY       84  38  19  N5      30.09F
#ARLINGTON AIRPON/A         79  44  29  E3      30.10F
#LYLE           N/A         82  44  26  S1      30.09F
#MARYHILL 2W    N/A         N/A N/A N/A CALM    N/A
#MOSIER 1S      N/A         82  28  14  NE6     30.09F
#MURDOCK        N/A         83  43  24  SW3     30.04F
#RUFUS DOT      N/A         78  45  31  NE6     N/A
#SMITHVILLE     N/A         82  43  25  N3      30.02F

$$

ORZ510-232210-
NORTH CENTRAL OREGON

CITY            SKY/WX      TMP DP  RH  WIND    PRES   REMARKS
#ANTELOPE       N/A         75  40  28  CALM    29.93F
#COW CYN RST AREN/A         75  N/A N/A CALM    N/A
#DUFUR 9E       N/A         73  41  31  E7      30.14F
#GRASS VALLEY 1SN/A         77  40  26  NE1     30.10S
#KENT DOT       N/A         74  41  30  N1      N/A
#MAUPIN SCHOOL  N/A         79  43  28  CALM    30.14F
#SHANIKO 5WSW   N/A         72  38  29  N6      N/A
#TYGH VALLEY 2NEN/A         77  44  31  N6      30.08F
#WAPANITIA AIRPON/A         76  39  26  NE1     30.10F
#WASCO DOT      N/A         81  46  29  SW3     N/A
#WASCO 5NE      N/A         80  45  29  CALM    30.09F
$$

ORZ511-232210-
CENTRAL OREGON

CITY            SKY/WX      TMP DP  RH  WIND    PRES   REMARKS
BEND AIRPORT    N/A         N/A N/A N/A MISG    N/A
MADRAS AIRPORT  SUNNY       79  32  18  N5      30.18F
PRINEVILLE AP   SUNNY       75  27  17  NW6     30.17F
REDMOND AIRPORT SUNNY       77  22  13  MISG    30.17S
#ASHWOOD SCHOOL N/A         76  32  20  CALM    30.10F
#BEND 1SW       N/A         72  31  22  N9      N/A
#BEND-AWBREY    N/A         74  35  24  CALM    30.07S
#CULVER         N/A         73  35  25  NW2     30.02S
#CULVER 8W      N/A         74  28  18  N1      30.14F
#LAKE BILLY CHINN/A         76  N/A N/A N3      30.17S
#MADRAS 4S      N/A         74  22  14  NW5     30.21F
#POWELL BUTTE 3EN/A         72  33  24  W5      N/A
#POWELL BUTTE   N/A         77  36  23  NW3     30.04S
#PRINEVILLE 3N  N/A         75  40  28  NW7     30.13F
#WARM SPRINGS   N/A         80  39  23  CALM    30.09F

$$


ORZ509-232210-
EAST SLOPES OF OREGON CASCADES

CITY            SKY/WX      TMP DP  RH  WIND    PRES   REMARKS
SISTERS AWOS    N/A         73  28  19  NE8     30.13S
#BLUE BOX PASS  N/A         72  N/A N/A CALM    N/A
#CAMP SHERMAN   N/A         82  31  16  N2      30.12F
#LA PINE 4NW    N/A         75  30  19  SW1     30.11F
#LAVA BUTTE DOT N/A         78  40  26  CALM    N/A
#SISTERS AIRPOR N/A         74  41  30  N6      30.17S
#SISTERS ODOT   N/A         73  N/A N/A W1      N/A
#SISTERS 3N     N/A         73  36  26  E3      30.08S
#SUNRIVER       N/A         77  31  19  NE2     30.09S
#TUMALO 3W      N/A         73  30  20  E3      29.94S
#WANOGA BUTTE D N/A         65  27  24  SE6     N/A

$$

ORZ044-232210-
LOWER COLUMBIA BASIN...OREGON

CITY            SKY/WX      TMP DP  RH  WIND    PRES   REMARKS
HERMISTON       SUNNY       81  42  25  NW6     30.11F
#BOARDMAN SCHOOLN/A         78  47  34  NW3     30.10F
#ECHO 8SW       N/A         79  44  29  CALM    30.13S
#I-84 EX 198 DOTN/A         75  51  43  CALM    N/A
#UMATILLA       N/A         85  46  26  CALM    30.03F
$$

ORZ507-232210-
NORTHERN FOOTHILLS OF THE BLUES

CITY            SKY/WX      TMP DP  RH  WIND    PRES   REMARKS
PENDLETON AIRPT SUNNY       81  37  21  N12     30.13F
#ADAMS 3WNW     N/A         77  41  28  N5      30.10S
#ATHENA         N/A         75  41  29  NE5     30.13F
#CAYUSE         N/A         76  41  28  W5      30.09F
#HELIX SCHOOL   N/A         74  42  32  N3      30.11S
#HELIX 3N       N/A         76  41  28  N9      30.12S
#HELIX 6SW      N/A         76  41  28  NE6     30.13S
#HOLDMAN 5SE    N/A         78  42  28  CALM    30.12F
#HOLDMAN 6E     N/A         77  40  26  SE2     29.91F
#M-F GROVE ELEM N/A         77  40  26  VRB1    30.10F
#M-FREEWATER 5SEN/A         78  48  35  W3      30.12F
#PENDLETON DNTN N/A         83  44  25  CALM    30.13S
#PDT AQUATIC CTRN/A         78  44  30  N6      30.14F
#PDT SUNRIDGE   N/A         79  42  27  CALM    30.13F
#PENDLETON 7NW  N/A         77  49  37  CALM    31.42S
#PILOT ROCK 1S  N/A         75  40  28  N1      30.14F
#PILOT ROCK     N/A         76  41  28  E3      30.14F
#TUTUILLA       N/A         79  40  25  CALM    30.11F
#UMAPINE 2E     N/A         79  48  34  SW2     30.09F
#WESTON SCHOOL  N/A         73  37  27  SE7     30.01F

$$

ORZ508-232210-
SOUTHERN FOOTHILLS OF THE BLUES

CITY            SKY/WX      TMP DP  RH  WIND    PRES   REMARKS
LEXINGTON       SUNNY       79  39  24  N6      30.17F
#AJAX           N/A         74  35  24  N7      27.89F
#CONDON SCHOOL  N/A         74  42  32  N2      30.12S
#FOSSIL SCHOOL  N/A         75  39  27  W5      30.09F
#HEPPNER EOC    N/A         77  40  26  N5      30.03F
#HEPPNER 4NE    N/A         71  40  32  NE3     30.10F
#LEXINGTON 2SE  N/A         79  42  27  N9      30.11F
#MIKKALO        N/A         78  38  24  N2      30.25F
#OLEX 4N        N/A         76  42  30  NE7     30.11F
#RUGGS 5NE      N/A         77  42  29  NE6     30.33S
#RUGGS 2SW      N/A         73  40  30  N6      30.11F

$$

ORZ502-503-232210-
BLUE MOUNTAINS

CITY            SKY/WX      TMP DP  RH  WIND    PRES   REMARKS
MEACHAM         SUNNY       69  28  21  VRB7    30.21S
#BATTLE MTN DOT N/A         67  40  37  NE3     N/A
#CUTSFORTH PARK N/A         70  37  30  E1      29.98S
#GREENHORN 9SW  N/A         76  32  20  W6      26.33F
#HARDMAN 10S    N/A         72  36  27  NW3     30.19S
#HEPPNER 15SE   N/A         69  36  30  W6      30.14R
#LADD CYN SMT   N/A         72  42  34  N8      N/A
#LADD CREEK ODOTN/A         73  44  35  NE9     N/A
#LONG CREEK HS  N/A         71  34  26  N7      30.18S
#N POWDER DOT   N/A         73  46  38  N12     N/A
#PIKES PEAK     N/A         67  38  34  CALM    27.99S
#TOLLGATE       N/A         60  34  37  N5      30.08S
#TROY SCHOOL    N/A         82  42  24  E3      29.88S
#UKIAH          N/A         70  37  30  N3      30.04S
#WESTON 4E      N/A         70  38  31  CALM    30.07F
$$

ORZ505-232210-
JOHN DAY BASIN

CITY            SKY/WX      TMP DP  RH  WIND    PRES   REMARKS
JOHN DAY        SUNNY       77  30  18  SW7     30.16F
#DAYVILLE SCHOOLN/A         79  30  17  NW6     30.08F
#MITCHELL       N/A         77  40  26  SW1     30.31F
#MITCHELL 8NW   N/A         73  31  21  N2      30.25F
#MONUMENT HS    N/A         77  36  23  S3      30.03F
#MT. VERNON 5SE N/A         73  32  22  S3      30.13S
#SPRAY SCHOOL   N/A         82  N/A N/A W1      N/A
$$

ORZ506-232210-
OCHOCO AND JOHN DAY HIGHLANDS

CITY            SKY/WX      TMP DP  RH  WIND    PRES   REMARKS
#BUCK CREEK DOT N/A         74  23  15  W12     N/A
#HORSE RIDGE DO N/A         71  17  13  NW6     N/A
#KEYES SMT DOT  N/A         70  33  25  CALM    N/A
#PAULINA SCHOOL N/A         74  16  11  SW3     N/A
#PINE MTN OBS   N/A         63  20  19  NW6     N/A
#SENECA         N/A         70  N/A N/A N3      N/A
#SENECA 9NW     N/A         73  30  20  N1      30.05S
$$

ORZ049-232210-
GRANDE RONDE VALLEY

CITY            SKY/WX      TMP DP  RH  WIND    PRES   REMARKS
LA GRANDE       SUNNY       77  34  21  N8      30.13F
#COVE           N/A         76  42  30  NW5     30.16S
#COVE SCHOOL    N/A         78  39  25  N1      30.14F
#COVE 6NW       N/A         74  38  27  W6      30.02S
#ELGIN 3N       N/A         75  32  21  W3      30.10S
#ELGIN 1E       N/A         76  39  26  CALM    N/A
#IMBLER SCHOOL  N/A         73  37  27  W3      30.09S
#ISLAND CITY 4N N/A         80  51  36  E1      30.12F
#LADD CYN DOT   N/A         77  47  35  SW2     N/A
#LA GRANDE ELEM N/A         76  38  25  NE5     30.13F
#UNION 1S       N/A         76  39  26  W5      29.98F
$$

ORZ050-232210-
WALLOWA COUNTY

CITY            SKY/WX      TMP DP  RH  WIND    PRES   REMARKS
JOSEPH AIRPORT  SUNNY       73  28  19  NW5     30.18S
#IMNAHA 10S     N/A         78  35  21  NE5     30.11S
#JOSEPH 3N      N/A         69  29  22  W3      30.18F
#JOSEPH 3W      N/A         68  35  29  N3      30.03S
#LOSTINE        N/A         76  38  25  CALM    29.89F
#LOSTINE 3SE    N/A         73  33  23  NW1     30.13F
#MT HOWARD 8000 N/A         51  31  46  NW1     30.36R
#PROMISE 1S     N/A         71  40  32  NW7     30.16F
#WALLOWA SCHOOL N/A         75  36  24  N1      30.09F



$$



USA.gov is the U.S. government's official web portal to all federal, state and local government web resources and services.